Year,Month,Day,Hour,Minute,Value (Times are PST for temperature in C)
2017,05,06,00,00,8.70
2017,05,06,00,01,8.70
2017,05,06,00,02,8.70
2017,05,06,00,03,8.60
2017,05,06,00,04,8.60
2017,05,06,00,05,8.50
2017,05,06,00,06,8.40
2017,05,06,00,07,8.30
2017,05,06,00,08,8.30
2017,05,06,00,09,8.20
2017,05,06,00,10,8.10
2017,05,06,00,11,8.10
2017,05,06,00,12,8.00
2017,05,06,00,13,7.90
2017,05,06,00,14,7.90
2017,05,06,00,15,7.90
2017,05,06,00,16,7.80
2017,05,06,00,17,7.80
2017,05,06,00,18,7.80
2017,05,06,00,19,7.80
2017,05,06,00,20,7.70
2017,05,06,00,21,7.70
2017,05,06,00,22,7.70
2017,05,06,00,23,7.70
2017,05,06,00,24,7.70
2017,05,06,00,25,7.70
2017,05,06,00,26,7.70
2017,05,06,00,27,7.70
2017,05,06,00,28,7.70
2017,05,06,00,29,7.70
2017,05,06,00,30,7.70
2017,05,06,00,31,7.60
2017,05,06,00,32,7.60
2017,05,06,00,33,7.60
2017,05,06,00,34,7.60
2017,05,06,00,35,7.60
2017,05,06,00,36,7.60
2017,05,06,00,37,7.60
2017,05,06,00,38,7.60
2017,05,06,00,39,7.60
2017,05,06,00,40,7.60
2017,05,06,00,41,7.60
2017,05,06,00,42,7.60
2017,05,06,00,43,7.50
2017,05,06,00,44,7.50
2017,05,06,00,45,7.50
2017,05,06,00,46,7.50
2017,05,06,00,47,7.40
2017,05,06,00,48,7.40
2017,05,06,00,49,7.40
2017,05,06,00,50,7.40
2017,05,06,00,51,7.30
2017,05,06,00,52,7.30
2017,05,06,00,53,7.30
2017,05,06,00,54,7.30
2017,05,06,00,55,7.30
2017,05,06,00,56,7.30
2017,05,06,00,57,7.30
2017,05,06,00,58,7.20
2017,05,06,00,59,7.20
2017,05,06,01,00,7.20
2017,05,06,01,01,7.20
2017,05,06,01,02,7.20
2017,05,06,01,03,7.20
2017,05,06,01,04,7.20
2017,05,06,01,05,7.20
2017,05,06,01,06,7.20
2017,05,06,01,07,7.20
2017,05,06,01,08,7.20
2017,05,06,01,09,7.20
2017,05,06,01,10,7.10
2017,05,06,01,11,7.10
2017,05,06,01,12,7.10
2017,05,06,01,13,7.10
2017,05,06,01,14,7.10
2017,05,06,01,15,7.10
2017,05,06,01,16,7.10
2017,05,06,01,17,7.00
2017,05,06,01,18,7.00
2017,05,06,01,19,7.00
2017,05,06,01,20,7.00
2017,05,06,01,21,7.00
2017,05,06,01,22,7.00
2017,05,06,01,23,6.90
2017,05,06,01,24,6.90
2017,05,06,01,25,6.90
2017,05,06,01,26,6.90
2017,05,06,01,27,6.90
2017,05,06,01,28,6.90
2017,05,06,01,29,6.80
2017,05,06,01,30,6.80
2017,05,06,01,31,6.80
2017,05,06,01,32,6.80
2017,05,06,01,33,6.80
2017,05,06,01,34,6.80
2017,05,06,01,35,6.80
2017,05,06,01,36,6.80
2017,05,06,01,37,6.70
2017,05,06,01,38,6.70
2017,05,06,01,39,6.70
2017,05,06,01,40,6.70
2017,05,06,01,41,6.70
2017,05,06,01,42,6.70
2017,05,06,01,43,6.70
2017,05,06,01,44,6.60
2017,05,06,01,45,6.60
2017,05,06,01,46,6.60
2017,05,06,01,47,6.60
2017,05,06,01,48,6.50
2017,05,06,01,49,6.50
2017,05,06,01,50,6.50
2017,05,06,01,51,6.40
2017,05,06,01,52,6.40
2017,05,06,01,53,6.40
2017,05,06,01,54,6.40
2017,05,06,01,55,6.40
2017,05,06,01,56,6.30
2017,05,06,01,57,6.30
2017,05,06,01,58,6.30
2017,05,06,01,59,6.30
2017,05,06,02,00,6.30
2017,05,06,02,01,6.20
2017,05,06,02,02,6.20
2017,05,06,02,03,6.20
2017,05,06,02,04,6.10
2017,05,06,02,05,6.10
2017,05,06,02,06,6.10
2017,05,06,02,07,6.00
2017,05,06,02,08,6.00
2017,05,06,02,09,5.90
2017,05,06,02,10,5.90
2017,05,06,02,11,5.90
2017,05,06,02,12,5.90
2017,05,06,02,13,5.80
2017,05,06,02,14,5.80
2017,05,06,02,15,5.80
2017,05,06,02,16,5.70
2017,05,06,02,17,5.70
2017,05,06,02,18,5.70
2017,05,06,02,19,5.60
2017,05,06,02,20,5.60
2017,05,06,02,21,5.60
2017,05,06,02,22,5.50
2017,05,06,02,23,5.50
2017,05,06,02,24,5.40
2017,05,06,02,25,5.40
2017,05,06,02,26,5.40
2017,05,06,02,27,5.40
2017,05,06,02,28,5.30
2017,05,06,02,29,5.30
2017,05,06,02,30,5.30
2017,05,06,02,31,5.30
2017,05,06,02,32,5.20
2017,05,06,02,33,5.20
2017,05,06,02,34,5.20
2017,05,06,02,35,5.20
2017,05,06,02,36,5.20
2017,05,06,02,37,5.20
2017,05,06,02,38,5.10
2017,05,06,02,39,5.10
2017,05,06,02,40,5.10
2017,05,06,02,41,5.10
2017,05,06,02,42,5.10
2017,05,06,02,43,5.00
2017,05,06,02,44,5.00
2017,05,06,02,45,5.00
2017,05,06,02,46,5.00
2017,05,06,02,47,4.90
2017,05,06,02,48,4.90
2017,05,06,02,49,4.90
2017,05,06,02,50,4.90
2017,05,06,02,51,4.90
2017,05,06,02,52,4.80
2017,05,06,02,53,4.80
2017,05,06,02,54,4.80
2017,05,06,02,55,4.80
2017,05,06,02,56,4.80
2017,05,06,02,57,4.80
2017,05,06,02,58,4.70
2017,05,06,02,59,4.70
2017,05,06,03,00,4.70
2017,05,06,03,01,4.70
2017,05,06,03,02,4.70
2017,05,06,03,03,4.60
2017,05,06,03,04,4.60
2017,05,06,03,05,4.60
2017,05,06,03,06,4.60
2017,05,06,03,07,4.60
2017,05,06,03,08,4.60
2017,05,06,03,09,4.60
2017,05,06,03,10,4.60
2017,05,06,03,11,4.50
2017,05,06,03,12,4.50
2017,05,06,03,13,4.50
2017,05,06,03,14,4.50
2017,05,06,03,15,4.50
2017,05,06,03,16,4.50
2017,05,06,03,17,4.50
2017,05,06,03,18,4.50
2017,05,06,03,19,4.50
2017,05,06,03,20,4.50
2017,05,06,03,21,4.50
2017,05,06,03,22,4.40
2017,05,06,03,23,4.40
2017,05,06,03,24,4.40
2017,05,06,03,25,4.40
2017,05,06,03,26,4.40
2017,05,06,03,27,4.30
2017,05,06,03,28,4.30
2017,05,06,03,29,4.30
2017,05,06,03,30,4.30
2017,05,06,03,31,4.30
2017,05,06,03,32,4.30
2017,05,06,03,33,4.30
2017,05,06,03,34,4.30
2017,05,06,03,35,4.30
2017,05,06,03,36,4.30
2017,05,06,03,37,4.30
2017,05,06,03,38,4.20
2017,05,06,03,39,4.20
2017,05,06,03,40,4.20
2017,05,06,03,41,4.20
2017,05,06,03,42,4.20
2017,05,06,03,43,4.20
2017,05,06,03,44,4.20
2017,05,06,03,45,4.20
2017,05,06,03,46,4.10
2017,05,06,03,47,4.20
2017,05,06,03,48,4.10
2017,05,06,03,49,4.10
2017,05,06,03,50,4.10
2017,05,06,03,51,4.10
2017,05,06,03,52,4.10
2017,05,06,03,53,4.10
2017,05,06,03,54,4.10
2017,05,06,03,55,4.10
2017,05,06,03,56,4.10
2017,05,06,03,57,4.10
2017,05,06,03,58,4.10
2017,05,06,03,59,4.10
2017,05,06,04,00,4.10
2017,05,06,04,01,4.10
2017,05,06,04,02,4.10
2017,05,06,04,03,4.10
2017,05,06,04,04,4.00
2017,05,06,04,05,4.00
2017,05,06,04,06,4.00
2017,05,06,04,07,3.90
2017,05,06,04,08,3.90
2017,05,06,04,09,3.90
2017,05,06,04,10,3.90
2017,05,06,04,11,3.80
2017,05,06,04,12,3.80
2017,05,06,04,13,3.80
2017,05,06,04,14,3.80
2017,05,06,04,15,3.80
2017,05,06,04,16,3.80
2017,05,06,04,17,3.80
2017,05,06,04,18,3.80
2017,05,06,04,19,3.80
2017,05,06,04,20,3.80
2017,05,06,04,21,3.80
2017,05,06,04,22,3.80
2017,05,06,04,23,3.80
2017,05,06,04,24,3.80
2017,05,06,04,25,3.80
2017,05,06,04,26,3.80
2017,05,06,04,27,3.80
2017,05,06,04,28,3.70
2017,05,06,04,29,3.70
2017,05,06,04,30,3.70
2017,05,06,04,31,3.70
2017,05,06,04,32,3.70
2017,05,06,04,33,3.70
2017,05,06,04,34,3.70
2017,05,06,04,35,3.60
2017,05,06,04,36,3.60
2017,05,06,04,37,3.60
2017,05,06,04,38,3.60
2017,05,06,04,39,3.60
2017,05,06,04,40,3.60
2017,05,06,04,41,3.60
2017,05,06,04,42,3.60
2017,05,06,04,43,3.60
2017,05,06,04,44,3.60
2017,05,06,04,45,3.50
2017,05,06,04,46,3.50
2017,05,06,04,47,3.50
2017,05,06,04,48,3.50
2017,05,06,04,49,3.50
2017,05,06,04,50,3.50
2017,05,06,04,51,3.40
2017,05,06,04,52,3.40
2017,05,06,04,53,3.40
2017,05,06,04,54,3.40
2017,05,06,04,55,3.40
2017,05,06,04,56,3.40
2017,05,06,04,57,3.40
2017,05,06,04,58,3.40
2017,05,06,04,59,3.40
2017,05,06,05,00,3.40
2017,05,06,05,01,3.40
2017,05,06,05,02,3.40
2017,05,06,05,03,3.40
2017,05,06,05,04,3.40
2017,05,06,05,05,3.40
2017,05,06,05,06,3.30
2017,05,06,05,07,3.30
2017,05,06,05,08,3.30
2017,05,06,05,09,3.30
2017,05,06,05,10,3.30
2017,05,06,05,11,3.30
2017,05,06,05,12,3.30
2017,05,06,05,13,3.30
2017,05,06,05,14,3.30
2017,05,06,05,15,3.30
2017,05,06,05,16,3.30
2017,05,06,05,17,3.30
2017,05,06,05,18,3.30
2017,05,06,05,19,3.30
2017,05,06,05,20,3.30
2017,05,06,05,21,3.30
2017,05,06,05,22,3.30
2017,05,06,05,23,3.30
2017,05,06,05,24,3.30
2017,05,06,05,25,3.30
2017,05,06,05,26,3.30
2017,05,06,05,27,3.30
2017,05,06,05,28,3.30
2017,05,06,05,29,3.30
2017,05,06,05,30,3.20
2017,05,06,05,31,3.20
2017,05,06,05,32,3.20
2017,05,06,05,33,3.20
2017,05,06,05,34,3.20
2017,05,06,05,35,3.20
2017,05,06,05,36,3.20
2017,05,06,05,37,3.20
2017,05,06,05,38,3.20
2017,05,06,05,39,3.20
2017,05,06,05,40,3.20
2017,05,06,05,41,3.10
2017,05,06,05,42,3.10
2017,05,06,05,43,3.10
2017,05,06,05,44,3.10
2017,05,06,05,45,3.10
2017,05,06,05,46,3.10
2017,05,06,05,47,3.00
2017,05,06,05,48,3.00
2017,05,06,05,49,3.00
2017,05,06,05,50,3.00
2017,05,06,05,51,3.00
2017,05,06,05,52,3.00
2017,05,06,05,53,3.00
2017,05,06,05,54,2.90
2017,05,06,05,55,2.90
2017,05,06,05,56,2.90
2017,05,06,05,57,2.90
2017,05,06,05,58,2.90
2017,05,06,05,59,2.90
2017,05,06,06,00,2.80
2017,05,06,06,01,2.80
2017,05,06,06,02,2.80
2017,05,06,06,03,2.80
2017,05,06,06,04,2.80
2017,05,06,06,05,2.80
2017,05,06,06,06,2.80
2017,05,06,06,07,2.80
2017,05,06,06,08,2.80
2017,05,06,06,09,2.80
2017,05,06,06,10,2.80
2017,05,06,06,11,2.80
2017,05,06,06,12,2.80
2017,05,06,06,13,2.80
2017,05,06,06,14,2.80
2017,05,06,06,15,2.80
2017,05,06,06,16,2.80
2017,05,06,06,17,2.80
2017,05,06,06,18,2.80
2017,05,06,06,19,2.80
2017,05,06,06,20,2.80
2017,05,06,06,21,2.80
2017,05,06,06,22,2.80
2017,05,06,06,23,2.80
2017,05,06,06,24,2.80
2017,05,06,06,25,2.80
2017,05,06,06,26,2.80
2017,05,06,06,27,2.80
2017,05,06,06,28,2.80
2017,05,06,06,29,2.80
2017,05,06,06,30,2.80
2017,05,06,06,31,2.80
2017,05,06,06,32,2.80
2017,05,06,06,33,2.80
2017,05,06,06,34,2.90
2017,05,06,06,35,2.90
2017,05,06,06,36,2.90
2017,05,06,06,37,3.00
2017,05,06,06,38,3.00
2017,05,06,06,39,3.00
2017,05,06,06,40,3.10
2017,05,06,06,41,3.10
2017,05,06,06,42,3.20
2017,05,06,06,43,3.20
2017,05,06,06,44,3.30
2017,05,06,06,45,3.30
2017,05,06,06,46,3.30
2017,05,06,06,47,3.40
2017,05,06,06,48,3.40
2017,05,06,06,49,3.40
2017,05,06,06,50,3.50
2017,05,06,06,51,3.50
2017,05,06,06,52,3.60
2017,05,06,06,53,3.60
2017,05,06,06,54,3.60
2017,05,06,06,55,3.60
2017,05,06,06,56,3.70
2017,05,06,06,57,3.70
2017,05,06,06,58,3.70
2017,05,06,06,59,3.70
2017,05,06,07,00,3.80
2017,05,06,07,01,3.80
2017,05,06,07,02,3.80
2017,05,06,07,03,3.80
2017,05,06,07,04,3.80
2017,05,06,07,05,3.80
2017,05,06,07,06,3.80
2017,05,06,07,07,3.90
2017,05,06,07,08,3.90
2017,05,06,07,09,3.90
2017,05,06,07,10,3.90
2017,05,06,07,11,3.90
2017,05,06,07,12,3.90
2017,05,06,07,13,3.90
2017,05,06,07,14,4.00
2017,05,06,07,15,4.00
2017,05,06,07,16,4.00
2017,05,06,07,17,4.10
2017,05,06,07,18,4.10
2017,05,06,07,19,4.10
2017,05,06,07,20,4.10
2017,05,06,07,21,4.20
2017,05,06,07,22,4.20
2017,05,06,07,23,4.20
2017,05,06,07,24,4.30
2017,05,06,07,25,4.30
2017,05,06,07,26,4.30
2017,05,06,07,27,4.30
2017,05,06,07,28,4.40
2017,05,06,07,29,4.40
2017,05,06,07,30,4.40
2017,05,06,07,31,4.40
2017,05,06,07,32,4.50
2017,05,06,07,33,4.50
2017,05,06,07,34,4.60
2017,05,06,07,35,4.60
2017,05,06,07,36,4.70
2017,05,06,07,37,4.70
2017,05,06,07,38,4.80
2017,05,06,07,39,4.80
2017,05,06,07,40,4.80
2017,05,06,07,41,4.80
2017,05,06,07,42,4.90
2017,05,06,07,43,4.90
2017,05,06,07,44,4.90
2017,05,06,07,45,5.00
2017,05,06,07,46,5.10
2017,05,06,07,47,5.10
2017,05,06,07,48,5.20
2017,05,06,07,49,5.20
2017,05,06,07,50,5.30
2017,05,06,07,51,5.30
2017,05,06,07,52,5.40
2017,05,06,07,53,5.50
2017,05,06,07,54,5.50
2017,05,06,07,55,5.60
2017,05,06,07,56,5.70
2017,05,06,07,57,5.80
2017,05,06,07,58,5.90
2017,05,06,07,59,6.10
2017,05,06,08,00,6.20
2017,05,06,08,01,6.30
2017,05,06,08,02,6.40
2017,05,06,08,03,6.50
2017,05,06,08,04,6.60
2017,05,06,08,05,6.70
2017,05,06,08,06,6.80
2017,05,06,08,07,6.90
2017,05,06,08,08,7.00
2017,05,06,08,09,7.10
2017,05,06,08,10,7.20
2017,05,06,08,11,7.30
2017,05,06,08,12,7.40
2017,05,06,08,13,7.50
2017,05,06,08,14,7.60
2017,05,06,08,15,7.70
2017,05,06,08,16,7.80
2017,05,06,08,17,7.90
2017,05,06,08,18,8.00
2017,05,06,08,19,8.10
2017,05,06,08,20,8.20
2017,05,06,08,21,8.40
2017,05,06,08,22,8.50
2017,05,06,08,23,8.60
2017,05,06,08,24,8.70
2017,05,06,08,25,8.80
2017,05,06,08,26,8.80
2017,05,06,08,27,8.80
2017,05,06,08,28,8.80
2017,05,06,08,29,8.90
2017,05,06,08,30,8.90
2017,05,06,08,31,8.90
2017,05,06,08,32,9.00
2017,05,06,08,33,9.00
2017,05,06,08,34,9.00
2017,05,06,08,35,9.10
2017,05,06,08,36,9.10
2017,05,06,08,37,9.10
2017,05,06,08,38,9.10
2017,05,06,08,39,9.10
2017,05,06,08,40,9.10
2017,05,06,08,41,9.10
2017,05,06,08,42,9.10
2017,05,06,08,43,9.10
2017,05,06,08,44,9.10
2017,05,06,08,45,9.10
2017,05,06,08,46,9.10
2017,05,06,08,47,9.10
2017,05,06,08,48,9.20
2017,05,06,08,49,9.20
2017,05,06,08,50,9.20
2017,05,06,08,51,9.30
2017,05,06,08,52,9.40
2017,05,06,08,53,9.40
2017,05,06,08,54,9.50
2017,05,06,08,55,9.60
2017,05,06,08,56,9.60
2017,05,06,08,57,9.60
2017,05,06,08,58,9.70
2017,05,06,08,59,9.70
2017,05,06,09,00,9.70
2017,05,06,09,01,9.70
2017,05,06,09,02,9.70
2017,05,06,09,03,9.70
2017,05,06,09,04,9.70
2017,05,06,09,05,9.80
2017,05,06,09,06,9.80
2017,05,06,09,07,9.80
2017,05,06,09,08,9.80
2017,05,06,09,09,9.90
2017,05,06,09,10,9.90
2017,05,06,09,11,10.00
2017,05,06,09,12,10.00
2017,05,06,09,13,10.10
2017,05,06,09,14,10.10
2017,05,06,09,15,10.00
2017,05,06,09,16,10.00
2017,05,06,09,17,10.00
2017,05,06,09,18,9.90
2017,05,06,09,19,9.90
2017,05,06,09,20,9.90
2017,05,06,09,21,9.90
2017,05,06,09,22,9.90
2017,05,06,09,23,9.90
2017,05,06,09,24,9.90
2017,05,06,09,25,9.90
2017,05,06,09,26,9.90
2017,05,06,09,27,9.90
2017,05,06,09,28,9.90
2017,05,06,09,29,9.90
2017,05,06,09,30,10.00
2017,05,06,09,31,10.00
2017,05,06,09,32,10.00
2017,05,06,09,33,10.00
2017,05,06,09,34,10.00
2017,05,06,09,35,10.10
2017,05,06,09,36,10.10
2017,05,06,09,37,10.20
2017,05,06,09,38,10.20
2017,05,06,09,39,10.20
2017,05,06,09,40,10.20
2017,05,06,09,41,10.10
2017,05,06,09,42,10.10
2017,05,06,09,43,10.10
2017,05,06,09,44,10.10
2017,05,06,09,45,10.10
2017,05,06,09,46,10.20
2017,05,06,09,47,10.20
2017,05,06,09,48,10.20
2017,05,06,09,49,10.20
2017,05,06,09,50,10.10
2017,05,06,09,51,10.10
2017,05,06,09,52,10.10
2017,05,06,09,53,10.10
2017,05,06,09,54,10.10
2017,05,06,09,55,10.10
2017,05,06,09,56,10.20
2017,05,06,09,57,10.20
2017,05,06,09,58,10.30
2017,05,06,09,59,10.30
2017,05,06,10,00,10.40
2017,05,06,10,01,10.50
2017,05,06,10,02,10.60
2017,05,06,10,03,10.70
2017,05,06,10,04,10.80
2017,05,06,10,05,10.90
2017,05,06,10,06,10.90
2017,05,06,10,07,10.90
2017,05,06,10,08,10.90
2017,05,06,10,09,10.90
2017,05,06,10,10,10.90
2017,05,06,10,11,10.80
2017,05,06,10,12,10.80
2017,05,06,10,13,10.80
2017,05,06,10,14,10.80
2017,05,06,10,15,10.80
2017,05,06,10,16,10.80
2017,05,06,10,17,10.80
2017,05,06,10,18,10.90
2017,05,06,10,19,11.00
2017,05,06,10,20,11.20
2017,05,06,10,21,11.30
2017,05,06,10,22,11.40
2017,05,06,10,23,11.50
2017,05,06,10,24,11.60
2017,05,06,10,25,11.60
2017,05,06,10,26,11.60
2017,05,06,10,27,11.70
2017,05,06,10,28,11.70
2017,05,06,10,29,11.70
2017,05,06,10,30,11.70
2017,05,06,10,31,11.70
2017,05,06,10,32,11.60
2017,05,06,10,33,11.70
2017,05,06,10,34,11.70
2017,05,06,10,35,11.80
2017,05,06,10,36,11.80
2017,05,06,10,37,11.90
2017,05,06,10,38,12.00
2017,05,06,10,39,12.10
2017,05,06,10,40,12.20
2017,05,06,10,41,12.10
2017,05,06,10,42,12.10
2017,05,06,10,43,12.00
2017,05,06,10,44,11.80
2017,05,06,10,45,11.80
2017,05,06,10,46,11.80
2017,05,06,10,47,11.70
2017,05,06,10,48,11.70
2017,05,06,10,49,11.70
2017,05,06,10,50,11.70
2017,05,06,10,51,11.60
2017,05,06,10,52,11.60
2017,05,06,10,53,11.60
2017,05,06,10,54,11.50
2017,05,06,10,55,11.50
2017,05,06,10,56,11.30
2017,05,06,10,57,11.30
2017,05,06,10,58,11.20
2017,05,06,10,59,11.30
2017,05,06,11,00,11.30
2017,05,06,11,01,11.40
2017,05,06,11,02,11.40
2017,05,06,11,03,11.50
2017,05,06,11,04,11.50
2017,05,06,11,05,11.50
2017,05,06,11,06,11.60
2017,05,06,11,07,11.60
2017,05,06,11,08,11.50
2017,05,06,11,09,11.50
2017,05,06,11,10,11.50
2017,05,06,11,11,11.50
2017,05,06,11,12,11.60
2017,05,06,11,13,11.60
2017,05,06,11,14,11.60
2017,05,06,11,15,11.60
2017,05,06,11,16,11.70
2017,05,06,11,17,11.80
2017,05,06,11,18,11.70
2017,05,06,11,19,11.70
2017,05,06,11,20,11.70
2017,05,06,11,21,11.70
2017,05,06,11,22,11.80
2017,05,06,11,23,11.80
2017,05,06,11,24,11.80
2017,05,06,11,25,11.80
2017,05,06,11,26,11.90
2017,05,06,11,27,11.90
2017,05,06,11,28,11.90
2017,05,06,11,29,12.00
2017,05,06,11,30,12.00
2017,05,06,11,31,12.00
2017,05,06,11,32,12.10
2017,05,06,11,33,12.10
2017,05,06,11,34,12.10
2017,05,06,11,35,12.00
2017,05,06,11,36,12.00
2017,05,06,11,37,12.10
2017,05,06,11,38,12.00
2017,05,06,11,39,12.10
2017,05,06,11,40,12.10
2017,05,06,11,41,12.30
2017,05,06,11,42,12.30
2017,05,06,11,43,12.30
2017,05,06,11,44,12.30
2017,05,06,11,45,12.30
2017,05,06,11,46,12.40
2017,05,06,11,47,12.50
2017,05,06,11,48,12.60
2017,05,06,11,49,12.70
2017,05,06,11,50,12.70
2017,05,06,11,51,12.80
2017,05,06,11,52,12.90
2017,05,06,11,53,13.00
2017,05,06,11,54,13.10
2017,05,06,11,55,13.10
2017,05,06,11,56,13.10
2017,05,06,11,57,13.10
2017,05,06,11,58,13.20
2017,05,06,11,59,13.20
2017,05,06,12,00,13.30
2017,05,06,12,01,13.30
2017,05,06,12,02,13.40
2017,05,06,12,03,13.40
2017,05,06,12,04,13.40
2017,05,06,12,05,13.40
2017,05,06,12,06,13.30
2017,05,06,12,07,13.20
2017,05,06,12,08,13.20
2017,05,06,12,09,13.10
2017,05,06,12,10,13.10
2017,05,06,12,11,13.10
2017,05,06,12,12,13.20
2017,05,06,12,13,13.30
2017,05,06,12,14,13.30
2017,05,06,12,15,13.50
2017,05,06,12,16,13.60
2017,05,06,12,17,13.50
2017,05,06,12,18,13.40
2017,05,06,12,19,13.40
2017,05,06,12,20,13.40
2017,05,06,12,21,13.30
2017,05,06,12,22,13.30
2017,05,06,12,23,13.40
2017,05,06,12,24,13.50
2017,05,06,12,25,13.70
2017,05,06,12,26,13.90
2017,05,06,12,27,14.10
2017,05,06,12,28,14.30
2017,05,06,12,29,14.50
2017,05,06,12,30,14.70
2017,05,06,12,31,14.80
2017,05,06,12,32,14.90
2017,05,06,12,33,14.90
2017,05,06,12,34,14.80
2017,05,06,12,35,14.70
2017,05,06,12,36,14.60
2017,05,06,12,37,14.50
2017,05,06,12,38,14.50
2017,05,06,12,39,14.60
2017,05,06,12,40,14.70
2017,05,06,12,41,14.70
2017,05,06,12,42,14.70
2017,05,06,12,43,14.60
2017,05,06,12,44,14.50
2017,05,06,12,45,14.50
2017,05,06,12,46,14.40
2017,05,06,12,47,14.30
2017,05,06,12,48,14.30
2017,05,06,12,49,14.10
2017,05,06,12,50,14.10
2017,05,06,12,51,14.10
2017,05,06,12,52,14.10
2017,05,06,12,53,14.10
2017,05,06,12,54,14.10
2017,05,06,12,55,14.10
2017,05,06,12,56,14.10
2017,05,06,12,57,14.10
2017,05,06,12,58,14.10
2017,05,06,12,59,14.10
2017,05,06,13,00,14.10
2017,05,06,13,01,14.20
2017,05,06,13,02,14.30
2017,05,06,13,03,14.30
2017,05,06,13,04,14.30
2017,05,06,13,05,14.20
2017,05,06,13,06,14.10
2017,05,06,13,07,14.10
2017,05,06,13,08,14.10
2017,05,06,13,09,14.10
2017,05,06,13,10,14.20
2017,05,06,13,11,14.40
2017,05,06,13,12,14.50
2017,05,06,13,13,14.60
2017,05,06,13,14,14.60
2017,05,06,13,15,14.60
2017,05,06,13,16,14.60
2017,05,06,13,17,14.50
2017,05,06,13,18,14.40
2017,05,06,13,19,14.30
2017,05,06,13,20,14.20
2017,05,06,13,21,14.20
2017,05,06,13,22,14.20
2017,05,06,13,23,14.20
2017,05,06,13,24,14.20
2017,05,06,13,25,14.20
2017,05,06,13,26,14.20
2017,05,06,13,27,14.20
2017,05,06,13,28,14.20
2017,05,06,13,29,14.20
2017,05,06,13,30,14.20
2017,05,06,13,31,14.30
2017,05,06,13,32,14.20
2017,05,06,13,33,14.20
2017,05,06,13,34,14.30
2017,05,06,13,35,14.30
2017,05,06,13,36,14.40
2017,05,06,13,37,14.40
2017,05,06,13,38,14.30
2017,05,06,13,39,14.20
2017,05,06,13,40,14.10
2017,05,06,13,41,14.00
2017,05,06,13,42,14.00
2017,05,06,13,43,13.90
2017,05,06,13,44,13.90
2017,05,06,13,45,13.90
2017,05,06,13,46,14.00
2017,05,06,13,47,14.00
2017,05,06,13,48,14.00
2017,05,06,13,49,14.00
2017,05,06,13,50,14.10
2017,05,06,13,51,14.00
2017,05,06,13,52,13.90
2017,05,06,13,53,13.80
2017,05,06,13,54,13.70
2017,05,06,13,55,13.60
2017,05,06,13,56,13.70
2017,05,06,13,57,13.80
2017,05,06,13,58,13.80
2017,05,06,13,59,13.80
2017,05,06,14,00,13.90
2017,05,06,14,01,14.00
2017,05,06,14,02,14.10
2017,05,06,14,03,14.20
2017,05,06,14,04,14.40
2017,05,06,14,05,14.60
2017,05,06,14,06,14.70
2017,05,06,14,07,14.80
2017,05,06,14,08,15.00
2017,05,06,14,09,15.10
2017,05,06,14,10,15.20
2017,05,06,14,11,15.30
2017,05,06,14,12,15.30
2017,05,06,14,13,15.40
2017,05,06,14,14,15.50
2017,05,06,14,15,15.60
2017,05,06,14,16,15.70
2017,05,06,14,17,15.70
2017,05,06,14,18,15.80
2017,05,06,14,19,15.80
2017,05,06,14,20,15.80
2017,05,06,14,21,15.80
2017,05,06,14,22,15.50
2017,05,06,14,23,15.20
2017,05,06,14,24,15.10
2017,05,06,14,25,15.00
2017,05,06,14,26,15.00
2017,05,06,14,27,15.10
2017,05,06,14,28,15.10
2017,05,06,14,29,15.10
2017,05,06,14,30,15.10
2017,05,06,14,31,15.00
2017,05,06,14,32,15.00
2017,05,06,14,33,14.90
2017,05,06,14,34,14.90
2017,05,06,14,35,14.80
2017,05,06,14,36,14.80
2017,05,06,14,37,14.70
2017,05,06,14,38,14.50
2017,05,06,14,39,14.40
2017,05,06,14,40,14.40
2017,05,06,14,41,14.30
2017,05,06,14,42,14.20
2017,05,06,14,43,14.10
2017,05,06,14,44,13.90
2017,05,06,14,45,13.80
2017,05,06,14,46,13.70
2017,05,06,14,47,13.80
2017,05,06,14,48,13.80
2017,05,06,14,49,13.80
2017,05,06,14,50,13.80
2017,05,06,14,51,13.80
2017,05,06,14,52,13.80
2017,05,06,14,53,13.80
2017,05,06,14,54,13.80
2017,05,06,14,55,13.70
2017,05,06,14,56,13.70
2017,05,06,14,57,13.70
2017,05,06,14,58,13.80
2017,05,06,14,59,13.80
2017,05,06,15,00,13.80
2017,05,06,15,01,13.80
2017,05,06,15,02,13.90
2017,05,06,15,03,14.00
2017,05,06,15,04,14.10
2017,05,06,15,05,14.10
2017,05,06,15,06,14.20
2017,05,06,15,07,14.20
2017,05,06,15,08,14.30
2017,05,06,15,09,14.30
2017,05,06,15,10,14.30
2017,05,06,15,11,14.30
2017,05,06,15,12,14.30
2017,05,06,15,13,14.40
2017,05,06,15,14,14.40
2017,05,06,15,15,14.50
2017,05,06,15,16,14.60
2017,05,06,15,17,14.60
2017,05,06,15,18,14.60
2017,05,06,15,19,14.60
2017,05,06,15,20,14.60
2017,05,06,15,21,14.70
2017,05,06,15,22,14.80
2017,05,06,15,23,14.80
2017,05,06,15,24,14.80
2017,05,06,15,25,14.80
2017,05,06,15,26,14.80
2017,05,06,15,27,14.70
2017,05,06,15,28,14.70
2017,05,06,15,29,14.70
2017,05,06,15,30,14.80
2017,05,06,15,31,14.80
2017,05,06,15,32,14.80
2017,05,06,15,33,14.70
2017,05,06,15,34,14.80
2017,05,06,15,35,14.80
2017,05,06,15,36,14.80
2017,05,06,15,37,14.70
2017,05,06,15,38,14.60
2017,05,06,15,39,14.60
2017,05,06,15,40,14.50
2017,05,06,15,41,14.40
2017,05,06,15,42,14.40
2017,05,06,15,43,14.40
2017,05,06,15,44,14.50
2017,05,06,15,45,14.50
2017,05,06,15,46,14.60
2017,05,06,15,47,14.80
2017,05,06,15,48,14.90
2017,05,06,15,49,15.00
2017,05,06,15,50,15.10
2017,05,06,15,51,15.20
2017,05,06,15,52,15.30
2017,05,06,15,53,15.20
2017,05,06,15,54,15.10
2017,05,06,15,55,15.10
2017,05,06,15,56,15.10
2017,05,06,15,57,15.10
2017,05,06,15,58,15.20
2017,05,06,15,59,15.20
2017,05,06,16,00,15.10
2017,05,06,16,01,15.00
2017,05,06,16,02,15.00
2017,05,06,16,03,15.10
2017,05,06,16,04,15.00
2017,05,06,16,05,14.90
2017,05,06,16,06,14.80
2017,05,06,16,07,14.70
2017,05,06,16,08,14.70
2017,05,06,16,09,14.70
2017,05,06,16,10,14.80
2017,05,06,16,11,14.80
2017,05,06,16,12,14.90
2017,05,06,16,13,14.90
2017,05,06,16,14,14.90
2017,05,06,16,15,14.80
2017,05,06,16,16,14.80
2017,05,06,16,17,14.60
2017,05,06,16,18,14.50
2017,05,06,16,19,14.40
2017,05,06,16,20,14.40
2017,05,06,16,21,14.30
2017,05,06,16,22,14.30
2017,05,06,16,23,14.40
2017,05,06,16,24,14.50
2017,05,06,16,25,14.50
2017,05,06,16,26,14.60
2017,05,06,16,27,14.60
2017,05,06,16,28,14.60
2017,05,06,16,29,14.50
2017,05,06,16,30,14.40
2017,05,06,16,31,14.40
2017,05,06,16,32,14.40
2017,05,06,16,33,14.30
2017,05,06,16,34,14.20
2017,05,06,16,35,14.20
2017,05,06,16,36,14.20
2017,05,06,16,37,14.20
2017,05,06,16,38,14.20
2017,05,06,16,39,14.20
2017,05,06,16,40,14.30
2017,05,06,16,41,14.30
2017,05,06,16,42,14.30
2017,05,06,16,43,14.30
2017,05,06,16,44,14.30
2017,05,06,16,45,14.30
2017,05,06,16,46,14.30
2017,05,06,16,47,14.30
2017,05,06,16,48,14.30
2017,05,06,16,49,14.30
2017,05,06,16,50,14.30
2017,05,06,16,51,14.30
2017,05,06,16,52,14.20
2017,05,06,16,53,14.20
2017,05,06,16,54,14.20
2017,05,06,16,55,14.20
2017,05,06,16,56,14.20
2017,05,06,16,57,14.20
2017,05,06,16,58,14.20
2017,05,06,16,59,14.20
2017,05,06,17,00,14.10
2017,05,06,17,01,14.00
2017,05,06,17,02,13.90
2017,05,06,17,03,13.90
2017,05,06,17,04,13.90
2017,05,06,17,05,13.90
2017,05,06,17,06,13.90
2017,05,06,17,07,13.90
2017,05,06,17,08,13.90
2017,05,06,17,09,14.00
2017,05,06,17,10,14.10
2017,05,06,17,11,14.10
2017,05,06,17,12,14.10
2017,05,06,17,13,14.20
2017,05,06,17,14,14.20
2017,05,06,17,15,14.10
2017,05,06,17,16,14.10
2017,05,06,17,17,14.00
2017,05,06,17,18,14.00
2017,05,06,17,19,14.00
2017,05,06,17,20,13.90
2017,05,06,17,21,13.90
2017,05,06,17,22,13.90
2017,05,06,17,23,13.90
2017,05,06,17,24,13.90
2017,05,06,17,25,13.90
2017,05,06,17,26,13.90
2017,05,06,17,27,14.00
2017,05,06,17,28,14.00
2017,05,06,17,29,14.00
2017,05,06,17,30,14.10
2017,05,06,17,31,14.10
2017,05,06,17,32,14.20
2017,05,06,17,33,14.20
2017,05,06,17,34,14.20
2017,05,06,17,35,14.10
2017,05,06,17,36,14.10
2017,05,06,17,37,14.00
2017,05,06,17,38,13.90
2017,05,06,17,39,13.90
2017,05,06,17,40,13.80
2017,05,06,17,41,13.80
2017,05,06,17,42,13.80
2017,05,06,17,43,13.80